Location: Aranbee
(34.0885°N, 118.2342°W)
Time: 18:00:20
(UTC+00:00)

S-56A Canister/Altair - All Passes

Search period start: 04 December 2020 00:00
Search period end: 14 December 2020 00:00
Orbit: 632 x 2500 km, 38.9° (Epoch: 03 December)

Date Brightness Start Highest point End Pass type
(mag) Time Alt. Az. Time Alt. Az. Time Alt. Az.
04 Dec - 00:48:43 10° SW 01:03:14 68° SSE 01:13:54 10° ENE visible
04 Dec - 02:56:13 10° W 03:09:22 74° NNW 03:18:04 10° ENE visible
04 Dec - 05:04:46 10° WNW 05:15:16 68° N 05:22:01 10° E visible
04 Dec - 07:11:56 10° WNW 07:19:51 61° SSW 07:25:11 10° SE night (unlit)
04 Dec - 09:21:33 10° WSW 09:22:21 10° SW 09:23:06 10° SW night (unlit)
04 Dec - 22:12:42 10° S 22:24:05 27° SE 22:34:21 10° E daylight
05 Dec - 00:15:09 10° SW 00:29:49 64° SSE 00:41:04 10° ENE daylight
05 Dec - 02:22:16 10° WSW 02:36:04 78° NNW 02:45:27 10° ENE visible
05 Dec - 04:30:56 10° WNW 04:42:14 67° N 04:49:31 10° E visible
05 Dec - 06:38:25 10° WNW 06:47:10 71° SSW 06:52:54 10° SE visible
05 Dec - 08:46:33 10° W 08:49:54 15° SW 08:52:47 10° SSW night (unlit)
05 Dec - 21:40:11 10° S 21:50:45 23° SE 22:00:38 10° E daylight
05 Dec - 23:41:41 10° SW 23:56:20 59° SSE 00:08:07 10° ENE daylight
06 Dec - 01:48:20 10° WSW 02:02:43 81° NNW 02:12:46 10° ENE visible
06 Dec - 03:57:01 10° W 04:09:06 67° N 04:16:58 10° E visible
06 Dec - 06:04:50 10° WNW 06:14:24 80° SSW 06:20:35 10° ESE visible
06 Dec - 08:12:34 10° W 08:17:26 20° SW 08:21:21 10° S night (unlit)
06 Dec - 21:07:55 10° S 21:17:25 20° SE 21:26:37 10° E daylight
06 Dec - 23:08:21 10° SW 23:22:51 54° SE 23:35:04 10° ENE daylight
07 Dec - 01:14:27 10° WSW 01:29:17 85° NNW 01:40:02 10° ENE visible
07 Dec - 03:23:04 10° W 03:35:53 68° N 03:44:23 10° E visible
07 Dec - 05:31:10 10° WNW 05:41:34 87° SSW 05:48:12 10° ESE visible
07 Dec - 07:38:46 10° W 07:44:57 26° SW 07:49:37 10° S night (unlit)
07 Dec - 20:36:00 10° SSE 20:44:09 17° SE 20:52:14 10° E daylight
07 Dec - 22:35:08 10° SSW 22:49:21 50° SE 23:01:53 10° ENE daylight
08 Dec - 00:40:38 10° WSW 00:55:46 89° NNW 01:07:12 10° ENE daylight
08 Dec - 02:49:05 10° W 03:02:36 69° N 03:11:44 10° E visible
08 Dec - 04:57:25 10° WNW 05:08:37 87° NNE 05:15:46 10° ESE visible
08 Dec - 07:05:01 10° WNW 07:12:26 33° SW 07:17:42 10° SSE night (unlit)
08 Dec - 20:04:41 10° SSE 20:10:55 14° SE 20:17:12 10° ESE daylight
08 Dec - 22:02:04 10° SSW 22:15:51 46° SE 22:28:36 10° ENE daylight
09 Dec - 00:06:55 10° WSW 00:22:13 86° SSE 00:34:18 10° ENE daylight
09 Dec - 02:15:05 10° W 02:29:13 70° N 02:39:02 10° E visible
09 Dec - 04:23:35 10° WNW 04:35:35 82° NNE 04:43:17 10° ESE visible
09 Dec - 06:31:17 10° WNW 06:39:49 40° SW 06:45:40 10° SSE visible
09 Dec - 19:34:57 10° SE 19:37:44 11° SE 19:40:34 10° ESE daylight
09 Dec - 21:29:08 10° SSW 21:42:23 41° SE 21:55:11 10° ENE daylight
09 Dec - 23:33:18 10° WSW 23:48:37 82° SSE 00:01:19 10° ENE daylight
10 Dec - 01:41:06 10° W 01:55:44 72° N 02:06:15 10° ENE visible
10 Dec - 03:49:43 10° WNW 04:02:27 79° NNE 04:10:44 10° ESE visible
10 Dec - 05:57:32 10° WNW 06:07:08 48° SW 06:13:33 10° SE visible
10 Dec - 20:56:22 10° SSW 21:08:57 37° SE 21:21:37 10° ENE daylight
10 Dec - 22:59:48 10° SW 23:14:59 77° SSE 23:28:15 10° ENE daylight
11 Dec - 01:07:10 10° W 01:22:11 74° N 01:33:25 10° ENE visible
11 Dec - 03:15:48 10° WNW 03:29:12 76° NNE 03:38:07 10° E visible
11 Dec - 05:23:44 10° WNW 05:34:22 57° SW 05:41:19 10° SE visible
11 Dec - 07:34:26 10° WSW 07:36:53 12° SW 07:39:07 10° SW night (unlit)
11 Dec - 20:23:46 10° S 20:35:35 33° SE 20:47:52 10° E daylight
11 Dec - 22:26:25 10° SW 22:41:20 73° SSE 22:55:05 10° ENE daylight
12 Dec - 00:33:18 10° W 00:48:34 76° NNW 01:00:30 10° ENE daylight
12 Dec - 02:41:51 10° WNW 02:55:52 74° N 03:05:27 10° E visible
12 Dec - 04:49:55 10° WNW 05:01:29 65° SSW 05:09:01 10° SE visible
12 Dec - 06:59:21 10° W 07:04:23 16° SW 07:08:29 10° SSW visible
12 Dec - 19:51:23 10° S 20:02:16 28° SE 20:13:56 10° E daylight
12 Dec - 21:53:11 10° SW 22:07:42 68° SSE 22:21:48 10° ENE daylight
12 Dec - 23:59:31 10° W 00:14:53 78° NNW 00:27:31 10° ENE daylight
13 Dec - 02:07:55 10° WNW 02:22:25 73° N 02:32:41 10° E visible
13 Dec - 04:16:04 10° WNW 04:28:30 72° SSW 04:36:38 10° SE visible
13 Dec - 06:24:57 10° W 06:31:48 21° SW 06:37:05 10° S visible
13 Dec - 19:19:13 10° S 19:29:02 24° SE 19:39:45 10° E daylight
13 Dec - 21:20:04 10° SW 21:34:06 63° SE 21:48:26 10° ENE daylight
13 Dec - 23:25:49 10° WSW 23:41:10 81° NNW 23:54:26 10° ENE daylight
